GFSFLT2_prec_cthk_270.txt.gz
RH
26 29 31 31 32 32 29 22 21 18 15 12 12 12 12 14 16 18 19 18 19 22 25 28 27 27 27 26 23 23 21 21
27 29 33 32 33 35 32 25 22 20 17 13 11 12 12 14 16 18 20 20 19 21 24 27 29 28 30 28 30 34 33 23
28 30 33 34 33 35 35 31 23 22 18 16 12 12 12 14 16 18 19 20 20 21 23 25 28 31 32 33 36 38 37 31
29 31 34 34 34 36 37 35 26 23 20 18 15 13 13 14 16 17 19 21 22 22 23 25 30 33 35 38 40 37 37 35
35 31 35 35 33 36 38 36 32 25 22 20 19 15 14 14 15 16 18 19 21 21 21 25 31 35 36 37 38 37 37 38
43 33 33 35 33 34 37 38 36 27 25 23 21 20 16 14 15 16 17 18 19 19 21 22 30 32 36 36 36 39 39 40
45 46 36 33 33 34 36 39 37 33 28 26 26 24 22 18 16 16 16 17 18 19 20 20 25 28 33 35 36 40 39 39
50 54 49 33 33 33 35 39 39 38 31 27 27 28 26 24 21 18 17 17 17 18 19 20 23 24 33 33 33 37 39 41
53 57 60 43 28 34 35 38 39 38 38 30 27 28 28 28 25 23 19 18 17 17 18 21 24 28 31 32 33 34 41 39
52 59 62 61 37 28 33 38 39 39 39 37 30 28 28 29 29 28 24 21 18 18 18 19 22 27 27 31 34 36 37 39
38 47 60 65 61 41 29 34 40 40 40 39 34 29 29 31 30 31 30 26 23 20 19 20 23 26 28 32 37 37 38 39
36 42 49 61 66 61 49 37 36 40 40 38 38 33 29 32 33 32 34 32 29 27 24 25 28 29 37 41 42 47 45 49
44 41 45 50 62 62 57 51 39 36 39 36 37 36 34 29 34 35 36 34 35 32 31 29 31 34 41 43 45 54 55 57
39 42 47 44 44 48 57 58 50 44 38 40 36 37 35 32 30 35 36 37 36 37 36 34 31 33 39 43 47 50 50 54
25 29 42 39 45 48 62 66 65 60 48 38 37 38 35 32 29 31 35 35 36 38 38 38 34 33 36 40 47 46 49 52
27 28 33 46 52 56 54 57 55 52 53 44 37 38 38 33 33 29 32 33 34 36 38 37 38 35 38 40 44 42 45 49
32 33 33 38 57 64 63 60 60 60 53 53 45 39 39 35 33 32 31 31 31 34 36 37 36 35 38 40 43 44 43 44
35 35 37 37 43 68 73 64 64 64 62 56 52 46 42 40 35 34 33 34 32 32 34 36 36 35 34 38 39 40 40 43
46 42 40 41 36 43 75 79 71 68 65 60 54 56 53 46 40 36 34 35 37 35 34 35 35 36 34 34 39 39 41 43
42 49 45 44 42 36 40 75 84 75 72 69 65 57 54 51 45 43 38 39 42 41 38 36 37 36 36 33 33 38 40 44

GFSFLT2_prec_cthk_273.txt.gz
RH
29 32 32 33 32 30 28 25 17 15 14 12 13 12 13 14 13 13 14 18 22 24 24 25 25 24 21 21 21 20 20 20
28 30 32 34 36 33 30 29 21 16 15 13 12 12 12 14 14 14 16 19 23 25 26 26 26 27 27 28 30 30 24 21
29 30 32 35 38 37 34 31 29 18 17 15 12 12 12 14 15 16 16 19 22 25 26 26 27 29 29 32 34 35 30 22
29 31 33 35 39 39 37 34 33 24 18 17 15 13 13 14 15 16 17 18 20 24 25 27 29 31 34 36 37 36 34 29
40 33 34 36 38 40 38 36 33 32 20 19 18 15 14 15 15 17 18 18 20 21 24 27 29 33 35 37 37 36 35 33
49 45 35 37 38 39 39 36 34 34 28 21 20 19 16 15 16 16 18 19 19 20 22 27 29 32 33 34 35 35 36 34
52 52 45 35 39 39 39 37 36 36 34 26 23 22 21 18 16 16 17 18 19 19 21 26 29 30 31 32 34 34 32 33
61 60 56 41 35 37 37 38 38 37 37 35 27 26 24 23 21 18 17 17 18 19 19 22 27 28 28 31 32 32 32 36
60 65 67 64 49 34 36 38 39 39 40 39 35 29 28 28 25 24 20 19 18 18 18 19 23 25 27 30 31 33 32 35
38 53 69 69 68 52 35 36 38 39 40 40 39 36 29 30 30 28 26 24 20 19 18 18 19 22 25 30 31 32 34 34
35 38 53 71 75 75 48 37 37 39 40 40 40 39 36 29 30 32 30 27 25 22 20 19 21 22 26 29 32 34 36 37
40 36 42 57 69 79 77 43 37 38 37 40 40 41 39 36 29 30 31 31 28 26 25 21 22 24 28 31 34 38 37 38
37 47 46 60 63 65 68 66 41 35 35 36 37 39 41 39 36 29 30 32 34 31 28 27 24 26 30 34 38 42 44 49
34 43 52 57 65 70 70 69 65 56 44 40 39 40 41 40 39 34 31 32 34 33 33 30 30 30 31 38 41 43 44 44
37 32 33 40 50 62 70 74 72 68 60 53 44 38 40 41 40 39 35 33 34 35 35 36 35 35 34 36 41 42 42 44
39 37 33 31 42 52 62 67 67 63 65 57 57 47 39 40 40 41 40 35 34 35 37 37 37 37 37 38 37 37 41 43
34 41 37 31 38 50 55 58 58 66 67 68 59 61 53 41 41 40 41 40 34 34 36 37 38 36 36 39 40 38 39 38
42 42 44 37 38 37 46 54 57 60 65 69 67 66 65 56 43 43 42 42 36 34 35 36 37 38 37 37 37 39 37 39
46 46 44 41 36 35 31 39 52 61 63 69 73 70 71 70 62 45 43 41 39 37 35 36 36 37 36 36 37 37 40 41
54 49 47 48 42 39 35 32 40 54 64 70 70 72 67 69 72 64 52 45 44 41 39 35 39 38 37 37 37 36 38 39

GFSFLT2_prec_cthk_279.txt.gz
RH
32 32 33 34 34 29 24 22 18 16 14 13 14 15 12 11 12 13 16 17 17 17 16 16 16 16 17 17 18 19 19 20
36 34 35 35 36 34 30 25 23 18 17 14 14 15 11 11 13 15 18 19 19 19 18 20 21 21 20 19 20 19 19 19
42 37 36 37 38 37 33 28 25 24 19 18 15 15 12 13 14 17 18 20 21 21 20 21 22 23 24 24 24 20 19 20
47 40 39 39 41 39 36 32 26 26 25 19 18 16 12 13 15 18 19 21 21 21 22 22 24 25 27 30 30 23 21 22
55 49 42 42 43 44 39 35 31 26 27 25 20 19 16 14 15 18 19 21 21 22 23 24 26 29 29 31 31 28 25 25
60 57 55 47 44 47 46 39 34 29 25 27 26 21 20 16 16 16 18 20 22 22 22 24 27 29 31 32 32 31 30 28
66 63 61 60 56 48 49 47 39 34 29 27 28 26 23 23 18 18 18 19 20 21 22 23 26 28 30 31 32 32 31 31
61 65 67 64 62 62 53 50 47 40 35 30 28 30 27 26 25 22 19 20 20 20 21 22 24 26 28 30 31 32 31 31
52 64 69 68 69 69 66 54 52 48 42 36 31 31 32 29 27 28 26 22 20 20 21 21 23 25 27 28 30 31 32 33
44 51 65 70 72 76 79 68 55 53 49 45 38 33 34 35 33 29 30 29 28 24 22 22 22 24 26 26 28 31 32 32
34 44 53 59 61 71 76 76 65 54 52 52 49 41 37 37 38 36 33 32 31 30 30 25 24 25 26 27 27 30 33 33
28 36 50 58 60 67 74 77 77 64 57 52 56 52 45 41 40 40 39 38 35 35 32 31 29 27 27 27 27 28 33 36
26 30 38 54 60 66 68 72 76 82 69 64 57 57 54 47 44 40 39 42 42 39 38 35 31 30 30 27 30 31 33 38
32 29 32 42 57 62 64 69 74 86 88 75 68 59 58 56 50 46 41 40 42 42 41 39 38 35 33 35 33 33 34 38
27 35 32 34 42 59 62 68 73 79 88 91 74 67 57 59 56 53 49 42 42 42 42 42 40 38 37 38 40 35 39 36
26 31 34 36 36 41 53 64 75 79 81 94 90 77 64 56 59 58 56 51 46 43 42 43 43 41 38 37 40 40 39 38
27 30 35 35 39 40 42 48 65 79 80 82 89 96 77 68 59 56 57 56 53 47 44 43 44 43 42 41 38 39 42 42
28 29 34 38 38 42 41 44 49 64 81 80 79 90 94 88 79 70 62 59 56 53 50 46 42 44 43 44 42 39 41 45
37 32 31 37 42 42 43 49 50 53 63 74 80 82 90 86 93 83 78 74 72 68 58 54 48 42 44 43 43 41 42 45
41 41 35 34 44 46 45 44 54 57 56 64 64 68 87 96 86 84 81 81 78 77 76 64 58 51 44 42 42 43 42 42

GFSFLT2_prec_cthk_285.txt.gz
RH
38 36 35 34 31 27 24 19 16 16 15 16 17 14 13 15 15 15 16 17 17 17 18 18 18 18 19 21 22 28 33 30
45 44 43 37 35 31 27 24 20 17 17 16 17 14 13 15 18 18 18 18 17 17 18 18 18 19 19 20 22 28 35 34
58 52 47 45 40 37 31 27 25 21 18 17 16 19 15 16 21 21 20 20 18 17 17 18 18 18 19 21 27 34 34 34
68 62 55 52 51 44 38 32 27 25 22 19 21 27 21 25 21 22 22 22 19 20 21 22 22 22 21 25 30 31 32 36
66 66 65 61 60 54 51 47 38 32 31 25 29 29 22 22 25 23 24 24 22 23 24 25 31 34 29 33 31 29 32 35
72 69 69 71 63 62 60 59 51 45 35 31 31 31 31 21 28 26 29 30 33 26 29 34 37 37 36 32 32 33 33 34
66 72 75 71 73 68 66 66 62 57 50 36 31 31 34 29 28 29 31 34 35 35 39 37 37 38 37 35 34 34 32 35
51 56 62 74 75 78 78 70 66 67 59 53 37 32 35 34 34 32 31 33 38 40 41 40 39 43 38 39 38 37 33 34
48 48 49 53 73 81 81 87 80 70 69 61 52 40 33 31 34 37 35 33 35 36 37 37 40 41 42 41 38 39 37 34
37 38 38 38 51 68 85 91 92 82 76 73 61 55 44 35 32 37 39 38 37 36 35 36 36 38 41 41 41 42 40 39
30 33 37 32 37 46 63 81 94 94 89 85 71 56 56 48 39 36 38 41 41 41 38 35 34 35 35 38 37 39 41 42
19 28 31 33 35 39 43 52 71 90 90 87 90 79 61 59 55 45 41 41 42 43 42 42 39 35 37 37 37 35 36 40
13 14 20 29 31 34 36 41 51 61 73 88 98 93 84 67 60 60 54 46 42 42 45 42 45 45 40 38 39 38 35 37
19 17 15 17 24 33 36 39 40 53 55 64 75 83 94 79 59 59 63 60 54 46 47 47 48 47 46 45 42 40 39 40
22 22 21 18 18 22 32 38 41 41 45 55 66 70 85 99 83 64 62 67 63 59 52 48 48 51 52 47 45 43 43 44
23 23 24 23 20 20 23 31 42 41 40 39 51 55 72 84 98 84 74 70 72 66 64 57 53 46 52 53 48 46 49 52
24 24 23 25 25 24 22 26 30 42 46 43 35 42 55 79 93 89 93 79 83 77 71 66 61 56 48 49 53 50 46 48
28 26 26 26 24 25 27 25 28 31 40 46 46 37 37 52 73 88 86 94 91 95 80 74 72 67 62 58 52 52 53 51
31 29 28 29 27 26 27 28 28 33 37 40 45 49 44 38 46 65 84 89 98 98 96 91 84 80 73 70 67 60 54 52
39 36 33 33 32 28 28 28 30 31 35 39 40 41 48 50 42 49 64 78 81 82 86 97 99 89 83 78 76 72 69 63

GFSFLT2_prec_cthk_291.txt.gz
RH
48 43 40 36 30 24 21 19 17 13 13 14 12 13 13 13 15 15 17 18 18 19 19 19 19 22 30 33 34 33 31 27
51 49 51 48 42 36 28 22 20 18 13 14 13 12 14 14 15 17 18 18 18 18 18 18 18 18 22 26 30 32 30 31
61 57 55 50 50 50 45 34 24 22 19 14 14 12 13 16 17 17 18 18 18 18 18 18 18 19 27 31 32 34 30 31
68 72 65 61 62 52 50 51 44 34 23 20 17 15 15 16 20 20 20 20 18 18 18 18 18 22 28 31 33 31 30 32
73 71 74 70 66 68 61 54 51 47 42 27 26 21 18 18 20 23 22 22 19 21 23 26 28 25 32 35 31 32 30 30
59 66 68 69 70 73 71 69 66 58 50 47 39 30 24 21 19 23 25 23 22 22 24 28 30 33 34 36 33 33 32 32
47 48 55 64 72 69 73 73 71 73 71 59 53 48 37 30 24 22 27 28 28 29 27 28 33 33 36 36 35 36 33 32
35 33 33 37 44 55 70 74 75 72 76 80 74 63 56 45 37 30 24 28 29 33 33 33 35 35 33 36 34 36 36 33
26 27 28 27 28 33 42 55 66 77 82 82 84 87 70 60 52 43 33 30 32 33 35 38 38 44 37 40 36 34 33 33
19 19 18 20 24 27 30 34 47 61 69 80 86 88 88 76 63 57 50 42 39 38 40 44 39 40 40 39 39 36 36 31
10 10 10 12 14 17 23 28 35 44 51 61 82 89 92 91 89 78 61 55 51 47 42 41 42 40 41 40 41 39 36 34
10 10 8 8 8 8 11 19 27 36 41 44 49 63 82 90 95 96 90 68 56 54 59 46 42 41 38 37 43 39 39 37
13 12 10 8 8 8 9 8 13 22 31 37 39 41 49 65 82 87 91 92 78 61 56 67 52 45 45 41 37 37 42 41
16 15 14 12 11 10 10 11 12 13 16 25 34 35 38 44 63 69 82 92 89 82 77 65 69 60 53 49 42 39 35 36
23 22 18 16 15 12 10 10 10 11 12 13 18 27 33 35 42 55 66 73 69 77 90 79 76 75 74 59 53 43 42 38
24 24 25 20 17 14 13 12 13 15 14 15 15 17 20 32 36 38 46 59 79 84 81 78 88 86 84 85 65 52 47 42
25 23 27 22 19 16 15 14 14 14 14 13 14 16 18 18 27 37 40 44 54 65 72 83 82 88 87 95 93 77 66 53
23 24 26 23 21 19 17 16 15 14 14 15 14 14 14 19 18 22 34 42 45 54 63 76 81 91 98 91 97 98 89 81
23 24 24 23 21 21 22 21 18 18 16 17 16 16 15 15 21 21 22 32 42 47 52 58 64 78 91 90 84 92 98 93
25 24 23 23 24 24 24 24 22 21 20 20 19 19 19 18 19 24 22 24 32 39 44 54 60 67 72 75 76 85 91 93